Find LUMELITE-4

NORAD ID: 56309 Int'l Des: 2023-057 Owner: NUS Country: SG operational
LEOCIRCULAR

Live-Position

3D-Globus wird geladen...

Über LUMELITE-4

Beschreibung wird geladen...

Nächste Überflüge

Passes for default location (London). Set your location on the main map for personalized predictions.

Höhenverlauf

Loading altitude history...

Zweizeiliger Elementsatz

1 56309U 23057B 26105.95924019 .00007250 00000-0 27931-3 0 9992
2 56309 9.9917 171.4659 0005895 263.4987 96.4558 15.20800360164563
Epoch: 15. Apr. 2026 • Age: 12 hours

Aktueller Status

Höhe 500.2 km
Geschwindigkeit 7.62 km/s
Subsatellitenpunkt -0.96°S, 14.19°W
Startdatum 22. Apr. 2023
Alter 2.9 years
Typ other

Technische Details

Klassifizierung Payload
Masse 16.00 kg
Trockenmasse 16.00 kg
Gesamtmasse 16.00 kg
Länge 0.30 m
Durchmesser 0.40 m
Spannweite 0.40 m
Form Box
Hersteller NUS
Bus-Typ Cubesat 12U
Phasenstatus In Orbit
Besitzer/Staat NUS/SG

Most Searched